Cairo, IL

5:23 PM CDT on July 21, 2017 (GMT -0500)
Cairo Regional

Weather History for KCIR - February, 2012

Change the Weather History Date:

Friday, February 17, 2012

  Actual Average Record
Temperature  
Mean Temperature 42 °F -  
Max Temperature 53 °F 47 °F 68 °F (1986)
Min Temperature 30 °F 30 °F -5 °F (2015)
Degree Days  
Heating Degree Days 24    
Moisture  
Dew Point 33 °F    
Average Humidity 76    
Maximum Humidity 93    
Minimum Humidity 44    
Precipitation  
Precipitation 0.00 in - - ()
Sea Level Pressure  
Sea Level Pressure 30.21 in    
Wind  
Wind Speed 1 mph (ESE)    
Max Wind Speed 7 mph    
Max Gust Speed -    
Visibility 5 miles    
Events Fog , Snow    
Averages and records for this station are not official NWS values.
T = Trace of Precipitation, MM = Missing Value Source: NWS Daily Summary

Daily Weather History Graph

Daily Weather History Graph

Search for Another Location

Airport or City:

Trip Planner

Search our weather history database for the weather conditions in past years. The results will help you decide how hot, cold, wet, or windy it might be!

Date:

Astronomy

Feb. 17, 2012 Rise Set
Actual Time 6:43 AM CST 5:38 PM CST
Civil Twilight 6:17 AM CST 6:05 PM CST
Nautical Twilight 5:46 AM CST 6:35 PM CST
Astronomical Twilight 5:16 AM CST 7:05 PM CST
Moon 3:30 AM CST (2/17) 1:35 PM CST (2/17)
Length of Visible Light 11h 47m
Length of Day
10h 54m
Waning Crescent, 19% of the Moon is Illuminated
Feb 17
Waning Crescent
Feb 21
New
Feb 29
First Quarter
Mar 8
Full
Mar 14
Last Quarter

Hourly Weather History & Observations

Time (CST) Temp. Windchill Dew Point Humidity Pressure Visibility Wind Dir Wind Speed Gust Speed Precip Events Conditions
12:15 AM 35.6 °F 32.8 °F 32.0 °F 87% 30.23 in 3.0 mi North 3.5 mph - N/A   Clear
12:35 AM 35.6 °F - 32.0 °F 87% 30.24 in 3.0 mi Calm Calm - N/A   Clear
12:55 AM 35.6 °F - 32.0 °F 87% 30.24 in 3.0 mi Calm Calm - N/A   Clear
1:15 AM 35.6 °F - 33.8 °F 93% 30.25 in 3.0 mi Calm Calm - N/A   Clear
1:35 AM 33.8 °F - 30.2 °F 87% 30.24 in 1.5 mi Calm Calm - N/A   Mist
1:55 AM 33.8 °F - 30.2 °F 87% 30.24 in 2.5 mi Calm Calm - N/A   Clear
2:15 AM 32.0 °F 28.7 °F 30.2 °F 93% 30.24 in 2.5 mi NNW 3.5 mph - N/A   Clear
2:35 AM 32.0 °F - 30.2 °F 93% 30.23 in 1.8 mi Calm Calm - N/A   Mist
2:55 AM 32.0 °F - 30.2 °F 93% 30.23 in 2.0 mi Calm Calm - N/A   Clear
3:15 AM 32.0 °F - 30.2 °F 93% 30.23 in 1.5 mi Calm Calm - N/A   Mist
3:35 AM 32.0 °F - 30.2 °F 93% 30.23 in 2.0 mi Calm Calm - N/A   Clear
3:55 AM 33.8 °F - 32.0 °F 93% 30.23 in 1.8 mi Calm Calm - N/A   Mist
4:15 AM 33.8 °F - 32.0 °F 93% 30.23 in 1.5 mi Calm Calm - N/A   Mist
4:35 AM 32.0 °F - 30.2 °F 93% 30.23 in 2.5 mi Calm Calm - N/A   Clear
4:55 AM 32.0 °F - 30.2 °F 93% 30.23 in 2.5 mi Calm Calm - N/A   Clear
5:15 AM 32.0 °F - 28.4 °F 87% 30.23 in 1.0 mi Calm Calm - N/A   Mostly Cloudy
5:35 AM 30.2 °F - 28.4 °F 93% 30.23 in 0.2 mi Calm Calm - N/A Fog Light Freezing Fog
5:55 AM 32.0 °F 28.7 °F 30.2 °F 93% 30.22 in 0.2 mi NNE 3.5 mph - N/A Snow Light Snow
6:15 AM 32.0 °F 28.7 °F 30.2 °F 93% 30.21 in 0.2 mi ENE 3.5 mph - N/A Snow Light Snow
6:35 AM 32.0 °F - 30.2 °F 93% 30.22 in 0.2 mi Calm Calm - N/A Fog Fog
6:55 AM 32.0 °F 28.7 °F 30.2 °F 93% 30.22 in 0.2 mi NNE 3.5 mph - N/A Fog Fog
7:15 AM 32.0 °F - 30.2 °F 93% 30.23 in 0.2 mi Calm Calm - N/A Fog Fog
7:35 AM 32.0 °F - 30.2 °F 93% 30.25 in 0.2 mi Calm Calm - N/A Fog Fog
7:55 AM 32.0 °F - 30.2 °F 93% 30.26 in 0.2 mi Calm Calm - N/A Fog Fog
8:15 AM 32.0 °F - 30.2 °F 93% 30.26 in 0.2 mi Calm Calm - N/A Fog Fog
8:35 AM 35.6 °F - 32.0 °F 87% 30.27 in 0.2 mi Calm Calm - N/A Fog Fog
8:55 AM 37.4 °F - 35.6 °F 93% 30.27 in 1.2 mi Calm Calm - N/A   Mostly Cloudy
9:15 AM 39.2 °F - 37.4 °F 93% 30.26 in 2.5 mi Calm Calm - N/A   Clear
9:35 AM 41.0 °F 39.0 °F 39.2 °F 93% 30.26 in 5.0 mi East 3.5 mph - N/A   Clear
9:55 AM 42.8 °F 39.3 °F 41.0 °F 93% 30.25 in 5.0 mi East 5.8 mph - N/A   Clear
10:15 AM 44.6 °F 43.1 °F 42.8 °F 93% 30.25 in 7.0 mi East 3.5 mph - N/A   Clear
10:35 AM 46.4 °F 43.5 °F 42.8 °F 87% 30.25 in 7.0 mi East 5.8 mph - N/A   Clear
10:55 AM 48.2 °F - 41.0 °F 76% 30.25 in 10.0 mi Calm Calm - N/A   Clear
11:15 AM 50.0 °F - 39.2 °F 66% 30.24 in 10.0 mi Calm Calm - N/A   Clear
11:35 AM 50.0 °F - 35.6 °F 58% 30.23 in 10.0 mi Calm Calm - N/A   Clear
11:55 AM 50.0 °F - 35.6 °F 58% 30.22 in 10.0 mi SSE 3.5 mph - N/A   Clear
12:15 PM 51.8 °F - 32.0 °F 47% 30.21 in 10.0 mi ESE 3.5 mph - N/A   Clear
12:35 PM 53.6 °F - 32.0 °F 44% 30.20 in 10.0 mi SE 4.6 mph - N/A   Clear
12:55 PM 53.6 °F - 32.0 °F 44% 30.19 in 10.0 mi ESE 4.6 mph - N/A   Clear
1:15 PM 53.6 °F - 32.0 °F 44% 30.19 in 10.0 mi Calm Calm - N/A   Clear
1:35 PM 53.6 °F - 32.0 °F 44% 30.18 in 10.0 mi NE 3.5 mph - N/A   Clear
1:55 PM 51.8 °F - 32.0 °F 47% 30.17 in 10.0 mi Calm Calm - N/A   Clear
2:15 PM 51.8 °F - 32.0 °F 47% 30.17 in 10.0 mi South 3.5 mph - N/A   Clear
2:35 PM 53.6 °F - 32.0 °F 44% 30.16 in 10.0 mi Calm Calm - N/A   Clear
2:55 PM 53.6 °F - 32.0 °F 44% 30.16 in 10.0 mi Calm Calm - N/A   Clear
3:15 PM 53.6 °F - 32.0 °F 44% 30.16 in 10.0 mi SSW 5.8 mph - N/A   Clear
3:35 PM 51.8 °F - 33.8 °F 50% 30.16 in 10.0 mi SW 6.9 mph - N/A   Clear
4:15 PM 51.8 °F - 35.6 °F 54% 30.15 in 10.0 mi SSW 4.6 mph - N/A   Clear
4:35 PM 50.0 °F - 35.6 °F 58% 30.15 in 10.0 mi SW 3.5 mph - N/A   Clear
4:55 PM 50.0 °F - 35.6 °F 58% 30.14 in 10.0 mi SSW 3.5 mph - N/A   Clear
5:15 PM 50.0 °F - 35.6 °F 58% 30.14 in 10.0 mi Calm Calm - N/A   Clear
5:35 PM 50.0 °F - 35.6 °F 58% 30.14 in 10.0 mi Calm Calm - N/A   Clear
5:55 PM 48.2 °F - 35.6 °F 62% 30.13 in 10.0 mi Calm Calm - N/A   Clear
6:15 PM 46.4 °F - 35.6 °F 66% 30.13 in 10.0 mi Calm Calm - N/A   Clear
6:35 PM 44.6 °F - 35.6 °F 71% 30.13 in 10.0 mi Calm Calm - N/A   Clear
6:55 PM 44.6 °F - 35.6 °F 71% 30.13 in 10.0 mi Calm Calm - N/A   Clear
7:15 PM 41.0 °F - 35.6 °F 81% 30.13 in 10.0 mi Calm Calm - N/A   Clear
7:35 PM 41.0 °F - 35.6 °F 81% 30.13 in 10.0 mi Calm Calm - N/A   Clear
7:55 PM 41.0 °F - 35.6 °F 81% 30.13 in 10.0 mi Calm Calm - N/A   Clear
8:15 PM 41.0 °F - 35.6 °F 81% 30.13 in 10.0 mi Calm Calm - N/A   Clear
8:35 PM 41.0 °F - 35.6 °F 81% 30.13 in 10.0 mi Calm Calm - N/A   Clear
8:55 PM 39.2 °F - 33.8 °F 81% 30.12 in 7.0 mi Calm Calm - N/A   Clear
9:15 PM 37.4 °F - 33.8 °F 87% 30.12 in 7.0 mi Calm Calm - N/A   Clear
9:35 PM 37.4 °F - 33.8 °F 87% 30.12 in 5.0 mi Calm Calm - N/A   Clear
9:55 PM 35.6 °F - 32.0 °F 87% 30.12 in 5.0 mi Calm Calm - N/A   Clear
10:15 PM 35.6 °F - 32.0 °F 87% 30.12 in 7.0 mi Calm Calm - N/A   Clear
10:35 PM 37.4 °F - 33.8 °F 87% 30.12 in 7.0 mi Calm Calm - N/A   Clear
10:55 PM 35.6 °F - 32.0 °F 87% 30.12 in 7.0 mi Calm Calm - N/A   Clear
11:15 PM 35.6 °F - 32.0 °F 87% 30.12 in 7.0 mi Calm Calm - N/A   Clear
11:35 PM 35.6 °F - 32.0 °F 87% 30.13 in 7.0 mi Calm Calm - N/A   Clear
11:55 PM 37.4 °F - 33.8 °F 87% 30.13 in 7.0 mi Calm Calm - N/A   Scattered Clouds